EDT,Max TemperatureF,Mean TemperatureF,Min TemperatureF,Max Dew PointF,MeanDew PointF,Min DewpointF,Max Humidity, Mean Humidity, Min Humidity, Max Sea Level PressureIn, Mean Sea Level PressureIn, Min Sea Level PressureIn, Max VisibilityMiles, Mean VisibilityMiles, Min VisibilityMiles, Max Wind SpeedMPH, Mean Wind SpeedMPH, Max Gust SpeedMPH,PrecipitationIn, CloudCover, Events, WindDirDegrees
2011-10-1,43,41,38,42,38,36,100,93,85,30.05,29.94,29.87,10,8,2,18,9,25,0.49,8,Rain,317
2011-10-2,51,45,38,40,35,31,100,73,46,30.09,30.04,29.98,10,9,3,22,11,30,0.04,8,Rain,310
2011-10-3,48,44,40,43,39,36,92,82,71,30.22,30.13,30.00,10,10,7,14,6,17,0.02,7,Rain,285
2011-10-4,54,49,43,48,47,43,100,92,83,30.33,30.27,30.19,10,7,2,12,4,14,0.00,7,,310
2011-10-5,69,54,39,49,42,37,100,70,39,30.35,30.31,30.27,10,4,0,12,3,15,0.00,0,Fog,218
2011-10-6,75,61,46,52,47,43,100,69,38,30.35,30.32,30.29,10,10,10,13,3,18,0.00,0,,138
2011-10-7,74,61,47,53,50,46,93,66,38,30.41,30.37,30.31,10,10,5,10,3,16,0.00,0,,126
2011-10-8,72,62,52,52,48,45,89,64,38,30.49,30.43,30.38,10,10,10,15,6,22,0.00,0,,126
2011-10-9,73,61,49,46,44,40,83,59,34,30.45,30.38,30.32,10,10,10,17,8,22,0.00,0,,127
2011-10-10,72,61,49,48,44,42,86,61,35,30.32,30.24,30.12,10,10,10,15,5,20,0.00,0,,117
2011-10-11,68,61,54,52,47,41,93,65,37,30.12,30.05,29.97,10,9,4,23,8,32,0.24,4,Rain,112
2011-10-12,67,60,53,58,54,51,100,84,68,29.98,29.89,29.79,10,8,0,13,3,17,0.23,7,Fog-Rain,153
2011-10-13,68,61,54,61,57,54,93,89,84,29.81,29.63,29.52,10,8,2,17,6,23,0.33,7,Rain-Thunderstorm,176
2011-10-14,60,54,48,54,44,32,100,70,40,29.80,29.64,29.52,10,9,4,30,12,37,0.15,5,Rain,269
2011-10-15,61,53,45,36,33,29,61,47,32,30.05,29.92,29.78,10,10,10,10,10,14,0.00,1,,263
2011-10-16,73,56,39,41,37,34,79,54,28,30.13,30.00,29.86,10,10,10,22,9,30,0.00,0,,227
2011-10-17,71,63,54,49,43,37,66,49,31,29.92,29.86,29.82,10,10,10,6,7,6,0.00,2,,276
2011-10-18,75,62,49,54,48,41,80,59,38,29.86,29.74,29.57,10,10,10,20,6,29,T,1,Thunderstorm,175
2011-10-19,63,53,42,56,48,39,93,80,67,29.56,29.40,29.24,10,8,2,17,14,24,0.32,8,Rain,190
2011-10-20,42,41,39,38,37,35,92,87,82,29.96,29.64,29.40,10,9,5,23,13,33,0.07,8,Rain,246
2011-10-21,48,41,34,36,34,32,92,76,60,30.19,30.08,29.94,10,10,10,17,7,22,0.00,6,,279
2011-10-22,58,45,32,38,34,31,100,70,40,30.21,30.16,30.11,10,10,8,10,3,15,0.00,0,,248
2011-10-23,62,48,34,37,33,28,89,59,29,30.17,30.12,30.08,10,10,10,10,3,15,0.00,0,,199
2011-10-24,65,54,43,49,42,34,100,69,37,30.20,30.14,30.02,10,5,0,21,4,30,0.05,2,Fog-Rain,241
2011-10-25,69,54,38,45,39,28,100,61,22,30.31,30.21,30.07,10,4,0,8,2,12,0.00,1,Fog,237
2011-10-26,69,60,51,50,43,38,72,56,39,30.06,29.95,29.82,10,10,10,16,8,23,T,2,Rain,223
2011-10-27,60,50,39,54,46,37,100,80,60,30.05,29.87,29.74,10,7,2,21,9,29,0.44,8,Rain,285
2011-10-28,41,38,34,36,34,30,92,83,73,30.16,30.07,30.00,10,8,2,20,7,26,0.20,7,Rain-Snow,89
2011-10-29,44,38,32,34,31,28,96,78,60,30.18,30.05,29.95,10,6,0,21,5,28,0.16,7,Fog-Snow,308
2011-10-30,52,40,28,33,27,19,92,60,28,30.32,30.25,30.18,10,10,9,13,4,17,0.00,0,,178
2011-10-31,50,41,32,34,30,27,89,68,46,30.27,30.24,30.17,10,10,10,16,7,21,T,1,,171